FENGYUN 1C DEB, 31255

Orbit data source: Space-Track

FENGYUN 1C DEB, 31255 is space debris in SSO originally from a launch on Mon, 10 May 1999 UTC launched from the Taiyaun Space Center, China (TSC). Fengyun 1C debris stems from the Chinese weather satellite Fengyun-1C, which was intentionally destroyed by a Chinese anti-satellite missile in 2007. This event dramatically increased the amount of space debris, with thousands of trackable fragments posing hazards to satellites and human spaceflight. The Fengyun 1C debris cloud has become a focal point in discussions about space sustainability and the need for international regulations to prevent the creation of new debris.

Loading next visibility...
Identifier
31255, 1999-025BMM
Orbit
SSO
Country
Flag of CNCN / PRC
Related business
Manufacturer
Unknown
Mission
Spacecraft
Bus & Motor
Unknown
Mass
Unknown
Launch date (UTC)
1999-05-10 (27 years ago)
Launch vehicle
Unknown
Launch site
Taiyaun Space Center, China (TSC)
Object type
Payload
Rocket body
Debris
Shape & HBR
Unknown shape, 0.1 m
Radar Cross Section
Medium (>0.1 m² and <1 m²)

Expand to show TLE details & history
Last TLE update: 7 hours ago

TLE from 7 hours ago
0 FENGYUN 1C DEB
1 31255U 99025BMM 26178.24428025  .00000981  00000-0  41521-3 0  9996
2 31255  99.3154   7.4544 0270109 155.7560 205.6599 14.10103198995705
Epoch: 2026-06-27T05:51Z
TLE epoch observation values (Epoch: 2026-06-27T05:51:45.813Z)
Latitude
-0°
Longitude
4.1523°
Altitude
1,039.097 km
Speed
7.242 km/s
True Right ascension
00h 29m 49s
True Declination
0° 00' 00"
Sunlit
Object was in daylight at epoch
Visualization orbit readout
Latitude
Unknown
Longitude
Unknown
Altitude
Unknown
Speed
Unknown
Apparent Right ascension
Unknown
Apparent Declination
Unknown
Sunlit
N/A
Visualization observer readout
Local Sidereal Time
00:05:16
Azimuth
Unknown
Elevation
Unknown
Doppler factor
Unknown
Orbital elements
Apogee altitude
1,051.624 km
Perigee altitude
660.811 km
Semi-major axis
7,234.354 km
Eccentricity
0.02701
Inclination
99.3154°
RAAN
7.4544°
Arg. of periapsis
155.756°
True anomaly
204.35932°
Mean anomaly
205.6599°
Eccentric anomaly
205.00571°
Mean motion
3.52731 °/min
Orbital period
102.06 mins
BSTAR
0.00041521
Loading maneuver chart data...
Computing Atmospheric mass density...

Documentation

Showing up to 5 results
|